Vertical_Velocity
2 1 1 1 0 1 0 -1 -0 -3 1 -0 -1 -1 -1 -1 -2 -2 -2 -2 -2 -2 -1 -2 -1 -1 -1 0 2 1 6 -1
-7 0 1 -1 -1 2 2 -1 -1 -0 -1 0 -1 -2 -2 -1 -2 -3 -2 -2 -2 -1 -2 -1 -1 -1 -1 -0 -2 0 6 -2
-1 -1 -1 -1 -1 2 2 1 0 0 -0 -1 0 -2 -2 -1 -2 -1 -1 -2 -2 -2 -1 -1 -2 -1 -1 -0 -2 1 -1 -1
-3 -2 -3 -4 -1 1 2 1 1 1 -0 -1 -1 -4 -5 -2 -1 -2 -3 -2 -1 -2 -2 -2 -2 -0 -0 -4 -3 0 6 -4
-3 -3 -3 -2 -2 -2 0 0 0 0 1 -1 -2 0 3 -1 -2 -2 -1 -3 -3 -3 -2 -3 -2 -3 1 -3 -2 1 1 -2
-0 -4 -3 -2 0 1 -2 -3 -2 -4 -4 -0 -3 1 -1 -1 -2 -1 -1 0 -1 0 -1 -2 -4 -1 -1 -1 -1 1 1 -3
-5 -3 -2 0 3 2 -2 2 -1 -4 1 0 -0 1 -0 1 3 1 3 3 4 -0 0 -2 0 -2 -3 -3 -3 -2 1 -0
-5 -2 -10 -7 10 12 17 9 8 6 -3 -3 -2 -4 -0 -2 -1 -2 -3 -2 -0 -1 -1 -1 -1 -2 -2 -1 -1 -2 -2 -1
4 -0 2 -6 7 0 1 0 4 -3 -2 2 -3 -1 -2 -1 -3 -3 -4 -3 -2 0 1 0 -0 0 -2 -1 -1 -0 -0 -0
-0 -2 -3 -6 -1 -1 -4 -2 -1 -1 -1 -1 6 -1 3 0 -4 -7 -6 -7 -4 -1 -1 -2 -2 -5 -2 -1 1 -2 -1 -1
6 7 -2 -6 -7 -9 -6 -5 -4 1 2 5 1 3 2 -5 -2 2 1 -1 -3 1 0 1 2 -1 -2 -0 -1 0 -2 1
0 5 -1 -3 -3 -3 -3 1 1 -3 -1 -1 0 -2 11 14 5 2 2 -1 -6 -3 1 4 -0 -1 -2 -1 -1 4 0 1
1 4 4 -2 -2 -1 7 -1 -3 1 -1 1 9 12 10 9 -10 -8 5 -2 -2 -1 -3 0 4 3 3 -3 -6 -4 -1 3
-14 -25 -15 -3 1 -0 1 7 -5 -2 -0 1 2 11 12 8 5 4 5 2 -0 -4 -3 -1 -1 3 0 3 -6 -8 -5 -9
2 11 5 9 -4 -5 -5 -3 1 -2 2 -4 -3 -5 -0 1 2 2 1 -1 -3 -2 -3 -2 -2 2 3 3 2 -4 -6 -0
-5 -1 -6 4 11 11 11 12 3 1 -1 2 0 2 -0 2 5 6 4 1 -0 -1 -1 -8 1 -3 4 2 4 3 -3 -3
9 7 -3 -5 -2 3 3 2 4 2 2 -2 0 -3 -3 -3 4 11 12 12 4 4 0 -1 -6 2 2 -2 2 2 2 1
-5 -5 -4 -3 -5 -3 -1 -2 -3 -3 -4 -2 -4 -2 -2 -2 -1 1 2 -1 -2 20 6 1 -1 -2 1 1 -5 2 -6 2
-2 -2 -5 -3 -2 -1 -0 -0 -2 1 2 2 3 2 -0 -0 -1 0 2 3 2 1 -1 16 -2 -2 -0 -2 2 -2 1 0
0 -1 -1 0 -0 -0 2 6 4 5 -1 -3 -6 -2 2 4 3 1 -2 -8 -1 4 -3 3 11 1 -1 2 1 -3 2 -3
Height
1533 1534 1536 1537 1537 1538 1539 1540 1541 1543 1544 1544 1545 1546 1547 1548 1548 1549 1549 1549 1549 1549 1549 1549 1549 1549 1549 1549 1550 1552 1552 1551
1533 1536 1537 1538 1539 1539 1539 1541 1542 1544 1545 1545 1546 1547 1547 1549 1549 1549 1549 1549 1549 1549 1549 1549 1549 1548 1549 1549 1549 1551 1550 1551
1534 1536 1538 1539 1540 1541 1541 1542 1543 1545 1545 1546 1547 1547 1547 1549 1549 1549 1549 1549 1549 1549 1549 1548 1548 1548 1548 1548 1549 1551 1549 1550
1536 1538 1539 1540 1542 1542 1542 1543 1545 1546 1546 1546 1547 1546 1547 1549 1550 1549 1549 1549 1549 1549 1549 1548 1548 1548 1547 1547 1547 1549 1548 1548
1537 1539 1541 1542 1543 1544 1544 1545 1546 1546 1546 1547 1547 1547 1549 1549 1549 1549 1548 1548 1547 1547 1547 1547 1546 1547 1547 1546 1547 1548 1546 1547
1537 1539 1542 1543 1544 1546 1545 1545 1546 1546 1546 1547 1548 1549 1548 1548 1548 1547 1547 1547 1546 1545 1545 1545 1545 1546 1545 1545 1545 1545 1545 1545
1534 1539 1543 1545 1547 1546 1545 1545 1546 1545 1546 1548 1548 1548 1547 1547 1547 1547 1547 1547 1547 1546 1545 1545 1545 1544 1543 1542 1543 1543 1543 1544
1534 1538 1541 1544 1547 1547 1546 1546 1547 1547 1546 1545 1545 1546 1546 1545 1545 1545 1545 1545 1544 1544 1543 1543 1542 1542 1542 1541 1541 1541 1541 1541
1531 1537 1540 1543 1545 1545 1545 1545 1546 1546 1545 1544 1543 1542 1542 1542 1542 1542 1542 1542 1542 1541 1541 1540 1540 1539 1539 1539 1539 1539 1538 1538
1535 1537 1538 1541 1544 1544 1544 1544 1544 1543 1542 1541 1540 1539 1538 1537 1536 1536 1537 1538 1537 1537 1537 1536 1535 1535 1536 1536 1536 1536 1536 1536
1536 1538 1538 1541 1542 1542 1542 1541 1540 1540 1539 1539 1538 1536 1534 1532 1531 1530 1530 1531 1532 1532 1532 1532 1532 1532 1532 1532 1533 1533 1533 1533
1538 1539 1539 1540 1540 1539 1537 1536 1535 1535 1534 1533 1532 1532 1530 1527 1526 1526 1526 1526 1526 1527 1527 1527 1527 1528 1528 1529 1529 1529 1529 1529
1538 1539 1539 1538 1537 1536 1533 1532 1530 1530 1529 1528 1527 1526 1524 1522 1521 1521 1520 1519 1519 1520 1521 1522 1523 1523 1524 1524 1524 1524 1525 1525
1537 1537 1537 1534 1532 1531 1529 1528 1525 1524 1523 1522 1521 1519 1516 1515 1514 1513 1513 1513 1513 1514 1515 1516 1517 1519 1519 1520 1519 1520 1519 1520
1534 1534 1532 1531 1529 1527 1525 1523 1520 1518 1516 1515 1513 1512 1510 1510 1509 1508 1507 1506 1505 1507 1508 1510 1511 1513 1514 1516 1515 1514 1515 1514
1535 1533 1530 1528 1526 1523 1520 1517 1513 1511 1508 1507 1505 1504 1503 1502 1501 1500 1498 1498 1497 1497 1499 1502 1504 1505 1508 1510 1511 1512 1513 1512
1532 1529 1526 1524 1521 1518 1514 1510 1507 1504 1501 1498 1496 1494 1493 1492 1492 1491 1489 1489 1489 1489 1491 1493 1496 1498 1500 1503 1506 1508 1510 1511
1528 1525 1522 1519 1515 1512 1508 1504 1500 1496 1493 1490 1488 1485 1484 1481 1481 1480 1479 1478 1478 1481 1482 1484 1487 1490 1493 1496 1499 1502 1504 1506
1524 1520 1516 1513 1509 1506 1502 1497 1493 1489 1485 1481 1478 1476 1475 1473 1472 1471 1471 1471 1471 1471 1472 1475 1478 1481 1485 1488 1492 1496 1500 1502
1520 1515 1511 1508 1503 1499 1494 1490 1485 1479 1476 1473 1470 1468 1466 1464 1461 1461 1460 1461 1462 1462 1464 1465 1469 1473 1477 1481 1486 1490 1494 1497